#timestamp,LO_Frequency,Hit 
1498237215.7,286047003.2,N
1498237235.5,286047003.4,N
1498237255.3,286047005.5,N
1498237275.2,286047003.5,N
1498237295.0,286047003.3,N
1498237295.9,286047003.3,N
1498237315.7,286047003.5,N
1498237335.6,286047003.5,N
1498237355.4,286047003.4,N
1498237375.2,286047003.6,N
1498237395.1,286047002.9,N
1498237396.0,286047002.9,N
1498237415.8,286047003.4,N
1498237435.6,286047003.2,N
1498237455.5,286047003.4,N
1498237475.3,286047005.2,N
1498237495.1,286047007.5,N
1498237515.9,286047004.8,N
1498237535.7,286047003.0,N
1498237555.5,286047003.1,N
1498237575.3,286047005.5,N
1498237595.2,286047003.0,N
1498237615.0,286047002.9,N
1498237615.9,286047002.9,N
1498237635.7,286047002.9,N
1498237655.6,286047005.9,N
1498237675.4,286047007.4,N
1498237695.2,286047007.4,N
1498237715.1,286047004.9,N
1498237716.0,286047004.9,N
1498237735.8,286047007.2,N
1498237755.6,286047007.4,N
1498237775.5,286047007.4,N
1498237795.3,286047007.3,N
1498237815.1,286047007.4,N
1498237835.9,286047004.6,N
1498237855.7,286047004.7,N
1498237875.5,286047006.3,N
1498237895.3,286047006.3,N
1498237915.2,286047007.3,N
1498237935.0,286047007.3,N
1498237935.9,286047007.3,N
1498237955.7,286047004.9,N
1498237975.6,286047007.0,N
1498237995.4,286047006.8,N
1498238015.2,286047006.9,N
1498238035.1,286047007.3,N
1498238036.0,286047007.3,N
1498238055.8,286047006.8,N
1498238075.6,286047007.0,N
1498238095.5,286047007.4,N
1498238115.3,286047009.2,N
1498238135.1,286047008.9,N
1498238155.9,286047006.5,N
1498238175.7,286047009.1,N
1498238195.5,286047008.9,N
1498238215.4,286047008.0,N
1498238235.2,286047006.5,N
1498238255.0,286047009.2,N
1498238255.9,286047009.2,N
1498238275.8,286047009.0,N
1498238295.6,286047008.1,N
1498238315.4,286047008.3,N
1498238335.2,286047010.8,N
1498238355.1,286047008.0,N
1498238356.0,286047008.0,N
1498238375.8,286047007.8,N
1498238395.6,286047010.3,N
1498238415.5,286047010.4,N
1498238435.3,286047010.2,N
1498238455.1,286047010.6,N
1498238475.9,286047010.3,N
1498238495.7,286047010.3,N
1498238515.5,286047007.7,N
1498238535.4,286047010.7,N
1498238555.2,286047010.6,N
1498238575.0,286047007.7,N
1498238575.9,286047007.7,N
1498238595.8,286047007.7,N
1498238615.6,286047007.9,N
1498238635.4,286047010.5,N
1498238655.2,286047010.7,N
1498238675.1,286047007.8,N
1498238676.0,286047007.8,N
1498238695.8,286047010.5,N
1498238715.6,286047010.5,N
1498238735.5,286047012.4,N
1498238755.3,286047009.4,N
1498238775.1,286047009.3,N
1498238795.9,286047012.1,N
1498238815.7,286047012.2,N
1498238835.5,286047011.0,N
1498238855.4,286047012.2,N
1498238875.2,286047012.0,N
1498238895.0,286047011.7,N
1498238895.9,286047011.7,N
1498238915.8,286047012.1,N
1498238935.6,286047011.6,N
1498238955.4,286047011.6,N
1498238975.2,286047011.5,N
1498238995.1,286047012.0,N
1498238996.0,286047012.0,N
1498239015.8,286047011.0,N
1498239035.6,286047011.4,N
1498239055.5,286047010.9,N
1498239075.3,286047014.0,N
1498239095.1,286047013.5,N
1498239115.9,286047013.6,N
1498239135.7,286047010.9,N
1498239155.5,286047011.2,N
1498239175.4,286047010.9,N
1498239195.2,286047013.3,N
1498239215.0,286047013.2,N
1498239215.9,286047013.2,N
1498239235.7,286047012.5,N
1498239255.6,286047015.4,Y
1498239275.4,286047004.2,N
1498239295.2,286047004.4,N
1498239315.1,286047003.7,N
1498239316.0,286047003.7,N
1498239335.8,286047003.3,N
1498239355.6,286047005.5,N
1498239375.0,286047005.6,N
1498239376.0,286047005.6,N
1498239395.8,286047004.8,N
1498239415.6,286047005.3,N
1498239435.4,286047004.9,N
1498239455.3,286047004.6,N
1498239475.1,286047005.7,N
1498239495.8,286047005.5,N
1498239515.7,286047005.7,N
1498239535.5,286047005.1,N
1498239555.3,286047004.9,N
1498239575.2,286047005.0,N
1498239595.9,286047005.1,N
1498239615.7,286047007.0,N
1498239635.6,286047007.2,N
1498239655.4,286047007.6,N
1498239675.2,286047005.0,N
1498239695.0,286047004.8,N
1498239696.0,286047004.8,N
1498239715.8,286047004.7,N
1498239735.6,286047004.6,N
1498239755.4,286047004.9,N
1498239775.3,286047007.3,N
1498239795.1,286047006.9,N
1498239815.8,286047009.1,N
1498239835.7,286047008.8,N
1498239855.5,286047008.4,N
1498239875.3,286047010.8,N
1498239895.2,286047009.7,N
1498239915.9,286047010.6,N
1498239935.7,286047009.5,N
1498239955.6,286047009.5,N
1498239975.4,286047010.5,N
1498239995.2,286047007.8,N
1498240015.0,286047009.2,N
1498240015.9,286047009.2,N
1498240035.8,286047008.5,N
1498240055.6,286047010.7,N
1498240075.4,286047010.5,N
1498240095.3,286047010.5,N
1498240115.1,286047010.2,N
1498240135.8,286047009.3,N
1498240155.7,286047010.8,N
1498240175.5,286047010.6,N
1498240195.3,286047008.1,N
1498240215.2,286047008.4,N
1498240235.9,286047010.4,N
1498240255.7,286047012.4,N
1498240275.6,286047012.3,N
1498240295.4,286047009.9,N
1498240315.2,286047009.8,N
1498240335.0,286047011.9,N
1498240335.9,286047011.9,N
1498240355.8,286047011.8,N
1498240375.6,286047012.0,N
1498240395.4,286047011.9,N
1498240415.3,286047012.2,N
1498240435.1,286047011.8,N
1498240455.8,286047011.1,N
1498240475.7,286047011.0,N
1498240495.5,286047013.5,Y
1498240515.3,286047003.1,N
1498240535.2,286047003.8,N
1498240555.9,286047003.3,N
1498240575.7,286047004.2,N
1498240595.6,286047004.2,N
1498240615.4,286047003.7,N
1498240635.2,286047004.4,N
1498240655.1,286047002.9,N
1498240656.0,286047002.9,N
1498240675.8,286047003.7,N
1498240695.6,286047003.3,N
1498240715.4,286047005.6,N
1498240735.3,286047006.0,N
1498240755.1,286047003.0,N
1498240775.8,286047005.6,N
1498240795.7,286047005.5,N
